Location: Newark
(47.5000°N, 4.6167°E)
Time: 00:47:54
(UTC+00:00)

ISS - Pass Details

Date: 16 May 2021
Orbit: 417 x 422 km, 51.6° (Epoch: 14 June)

Event Time Altitude Azimuth Distance (km) Brightness Sun altitude
Rises 20:49:11 0° 238° (WSW) 2,355 0.2 -13.2°
Reaches altitude 10° 20:51:17 10° 237° (WSW) 1,495 -0.9 -13.4°
Maximum altitude 20:54:38 73° 152° (SSE) 442 -3.9 -13.8°
Drops below altitude 10° 20:58:00 10° 68° (ENE) 1,505 -1.1 -14.2°
Sets 21:00:06 0° 66° (ENE) 2,373 -0.1 -14.4°
